<?xml version="1.0" encoding="UTF-8" standalone="no" ?><gpx xmlns="http://www.topografix.com/GPX/1/1" xmlns:gpxx="http://www.garmin.com/xmlschemas/GpxExtensions/v3" xmlns:wptx1="http://www.garmin.com/xmlschemas/WaypointExtension/v1" xmlns:gpxtpx="http://www.garmin.com/xmlschemas/TrackPointExtension/v1" creator="GuideVTT.com" version="1.1" xmlns:xsi="http://www.w3.org/2001/XMLSchema-instance" xsi:schemaLocation="http://www.topografix.com/GPX/1/1 http://www.topografix.com/GPX/1/1/gpx.xsd http://www.garmin.com/xmlschemas/GpxExtensions/v3 http://www8.garmin.com/xmlschemas/GpxExtensionsv3.xsd http://www.garmin.com/xmlschemas/WaypointExtension/v1 http://www8.garmin.com/xmlschemas/WaypointExtensionv1.xsd http://www.garmin.com/xmlschemas/TrackPointExtension/v1 http://www.garmin.com/xmlschemas/TrackPointExtensionv1.xsd">
<metadata><link href="http://www.garmin.com"><text>Garmin International</text></link><time>2013-06-22T15:13:50Z</time></metadata>
<trk><name>vtt44_gruyere.gpx</name><extensions><gpxx:TrackExtension><gpxx:DisplayColor>Cyan</gpxx:DisplayColor></gpxx:TrackExtension></extensions><trkseg>
<trkpt lat="46.61932" lon="7.16378"><ele>0</ele><time>-0-0T0:0:0Z</time></trkpt>
<trkpt lat="46.61984" lon="7.16236"><ele>0</ele><time>-0-0T0:0:0Z</time></trkpt>
<trkpt lat="46.62110" lon="7.15595"><ele>0</ele><time>-0-0T0:0:0Z</time></trkpt>
<trkpt lat="46.62133" lon="7.15489"><ele>0</ele><time>-0-0T0:0:0Z</time></trkpt>
<trkpt lat="46.62200" lon="7.15394"><ele>0</ele><time>-0-0T0:0:0Z</time></trkpt>
<trkpt lat="46.62229" lon="7.15278"><ele>0</ele><time>-0-0T0:0:0Z</time></trkpt>
<trkpt lat="46.62224" lon="7.15150"><ele>0</ele><time>-0-0T0:0:0Z</time></trkpt>
<trkpt lat="46.62110" lon="7.14897"><ele>0</ele><time>-0-0T0:0:0Z</time></trkpt>
<trkpt lat="46.62173" lon="7.14893"><ele>0</ele><time>-0-0T0:0:0Z</time></trkpt>
<trkpt lat="46.62256" lon="7.14864"><ele>0</ele><time>-0-0T0:0:0Z</time></trkpt>
<trkpt lat="46.62336" lon="7.14870"><ele>0</ele><time>-0-0T0:0:0Z</time></trkpt>
<trkpt lat="46.62369" lon="7.14976"><ele>0</ele><time>-0-0T0:0:0Z</time></trkpt>
<trkpt lat="46.62409" lon="7.15018"><ele>0</ele><time>-0-0T0:0:0Z</time></trkpt>
<trkpt lat="46.62451" lon="7.15026"><ele>0</ele><time>-0-0T0:0:0Z</time></trkpt>
<trkpt lat="46.62579" lon="7.15134"><ele>0</ele><time>-0-0T0:0:0Z</time></trkpt>
<trkpt lat="46.62672" lon="7.15162"><ele>0</ele><time>-0-0T0:0:0Z</time></trkpt>
<trkpt lat="46.62684" lon="7.15278"><ele>0</ele><time>-0-0T0:0:0Z</time></trkpt>
<trkpt lat="46.62737" lon="7.15337"><ele>0</ele><time>-0-0T0:0:0Z</time></trkpt>
<trkpt lat="46.62812" lon="7.15351"><ele>0</ele><time>-0-0T0:0:0Z</time></trkpt>
<trkpt lat="46.62929" lon="7.15393"><ele>0</ele><time>-0-0T0:0:0Z</time></trkpt>
<trkpt lat="46.63002" lon="7.15339"><ele>0</ele><time>-0-0T0:0:0Z</time></trkpt>
<trkpt lat="46.63050" lon="7.15476"><ele>0</ele><time>-0-0T0:0:0Z</time></trkpt>
<trkpt lat="46.63285" lon="7.15671"><ele>0</ele><time>-0-0T0:0:0Z</time></trkpt>
<trkpt lat="46.63363" lon="7.15653"><ele>0</ele><time>-0-0T0:0:0Z</time></trkpt>
<trkpt lat="46.63361" lon="7.15823"><ele>0</ele><time>-0-0T0:0:0Z</time></trkpt>
<trkpt lat="46.63434" lon="7.15939"><ele>0</ele><time>-0-0T0:0:0Z</time></trkpt>
<trkpt lat="46.63462" lon="7.16026"><ele>0</ele><time>-0-0T0:0:0Z</time></trkpt>
<trkpt lat="46.63559" lon="7.16214"><ele>0</ele><time>-0-0T0:0:0Z</time></trkpt>
<trkpt lat="46.63610" lon="7.16370"><ele>0</ele><time>-0-0T0:0:0Z</time></trkpt>
<trkpt lat="46.63691" lon="7.16508"><ele>0</ele><time>-0-0T0:0:0Z</time></trkpt>
<trkpt lat="46.63723" lon="7.16639"><ele>0</ele><time>-0-0T0:0:0Z</time></trkpt>
<trkpt lat="46.63761" lon="7.16696"><ele>0</ele><time>-0-0T0:0:0Z</time></trkpt>
<trkpt lat="46.63816" lon="7.16707"><ele>0</ele><time>-0-0T0:0:0Z</time></trkpt>
<trkpt lat="46.63899" lon="7.16630"><ele>0</ele><time>-0-0T0:0:0Z</time></trkpt>
<trkpt lat="46.63958" lon="7.16605"><ele>0</ele><time>-0-0T0:0:0Z</time></trkpt>
<trkpt lat="46.64028" lon="7.16640"><ele>0</ele><time>-0-0T0:0:0Z</time></trkpt>
<trkpt lat="46.64149" lon="7.16563"><ele>0</ele><time>-0-0T0:0:0Z</time></trkpt>
<trkpt lat="46.64208" lon="7.16585"><ele>0</ele><time>-0-0T0:0:0Z</time></trkpt>
<trkpt lat="46.64251" lon="7.16716"><ele>0</ele><time>-0-0T0:0:0Z</time></trkpt>
<trkpt lat="46.64294" lon="7.16712"><ele>0</ele><time>-0-0T0:0:0Z</time></trkpt>
<trkpt lat="46.64321" lon="7.16672"><ele>0</ele><time>-0-0T0:0:0Z</time></trkpt>
<trkpt lat="46.64376" lon="7.16672"><ele>0</ele><time>-0-0T0:0:0Z</time></trkpt>
<trkpt lat="46.64388" lon="7.16762"><ele>0</ele><time>-0-0T0:0:0Z</time></trkpt>
<trkpt lat="46.64364" lon="7.16860"><ele>0</ele><time>-0-0T0:0:0Z</time></trkpt>
<trkpt lat="46.64309" lon="7.16879"><ele>0</ele><time>-0-0T0:0:0Z</time></trkpt>
<trkpt lat="46.64299" lon="7.16922"><ele>0</ele><time>-0-0T0:0:0Z</time></trkpt>
<trkpt lat="46.64314" lon="7.17064"><ele>0</ele><time>-0-0T0:0:0Z</time></trkpt>
<trkpt lat="46.64277" lon="7.17126"><ele>0</ele><time>-0-0T0:0:0Z</time></trkpt>
<trkpt lat="46.64242" lon="7.17224"><ele>0</ele><time>-0-0T0:0:0Z</time></trkpt>
<trkpt lat="46.64230" lon="7.17340"><ele>0</ele><time>-0-0T0:0:0Z</time></trkpt>
<trkpt lat="46.64290" lon="7.17558"><ele>0</ele><time>-0-0T0:0:0Z</time></trkpt>
<trkpt lat="46.64361" lon="7.17662"><ele>0</ele><time>-0-0T0:0:0Z</time></trkpt>
<trkpt lat="46.64463" lon="7.17749"><ele>0</ele><time>-0-0T0:0:0Z</time></trkpt>
<trkpt lat="46.64456" lon="7.17822"><ele>0</ele><time>-0-0T0:0:0Z</time></trkpt>
<trkpt lat="46.64474" lon="7.17873"><ele>0</ele><time>-0-0T0:0:0Z</time></trkpt>
<trkpt lat="46.64504" lon="7.17920"><ele>0</ele><time>-0-0T0:0:0Z</time></trkpt>
<trkpt lat="46.64509" lon="7.18108"><ele>0</ele><time>-0-0T0:0:0Z</time></trkpt>
<trkpt lat="46.64550" lon="7.18254"><ele>0</ele><time>-0-0T0:0:0Z</time></trkpt>
<trkpt lat="46.64642" lon="7.18501"><ele>0</ele><time>-0-0T0:0:0Z</time></trkpt>
<trkpt lat="46.64658" lon="7.18631"><ele>0</ele><time>-0-0T0:0:0Z</time></trkpt>
<trkpt lat="46.64716" lon="7.18794"><ele>0</ele><time>-0-0T0:0:0Z</time></trkpt>
<trkpt lat="46.64906" lon="7.18814"><ele>0</ele><time>-0-0T0:0:0Z</time></trkpt>
<trkpt lat="46.64926" lon="7.18808"><ele>0</ele><time>-0-0T0:0:0Z</time></trkpt>
<trkpt lat="46.64989" lon="7.18862"><ele>0</ele><time>-0-0T0:0:0Z</time></trkpt>
<trkpt lat="46.65037" lon="7.18966"><ele>0</ele><time>-0-0T0:0:0Z</time></trkpt>
<trkpt lat="46.65066" lon="7.18992"><ele>0</ele><time>-0-0T0:0:0Z</time></trkpt>
<trkpt lat="46.65084" lon="7.19076"><ele>0</ele><time>-0-0T0:0:0Z</time></trkpt>
<trkpt lat="46.65109" lon="7.19078"><ele>0</ele><time>-0-0T0:0:0Z</time></trkpt>
<trkpt lat="46.65139" lon="7.18995"><ele>0</ele><time>-0-0T0:0:0Z</time></trkpt>
<trkpt lat="46.65172" lon="7.19057"><ele>0</ele><time>-0-0T0:0:0Z</time></trkpt>
<trkpt lat="46.65267" lon="7.19133"><ele>0</ele><time>-0-0T0:0:0Z</time></trkpt>
<trkpt lat="46.65274" lon="7.19067"><ele>0</ele><time>-0-0T0:0:0Z</time></trkpt>
<trkpt lat="46.65324" lon="7.18994"><ele>0</ele><time>-0-0T0:0:0Z</time></trkpt>
<trkpt lat="46.65351" lon="7.18918"><ele>0</ele><time>-0-0T0:0:0Z</time></trkpt>
<trkpt lat="46.65463" lon="7.18812"><ele>0</ele><time>-0-0T0:0:0Z</time></trkpt>
<trkpt lat="46.65479" lon="7.18746"><ele>0</ele><time>-0-0T0:0:0Z</time></trkpt>
<trkpt lat="46.65399" lon="7.18740"><ele>0</ele><time>-0-0T0:0:0Z</time></trkpt>
<trkpt lat="46.65303" lon="7.18675"><ele>0</ele><time>-0-0T0:0:0Z</time></trkpt>
<trkpt lat="46.65293" lon="7.18453"><ele>0</ele><time>-0-0T0:0:0Z</time></trkpt>
<trkpt lat="46.65270" lon="7.18439"><ele>0</ele><time>-0-0T0:0:0Z</time></trkpt>
<trkpt lat="46.65223" lon="7.18480"><ele>0</ele><time>-0-0T0:0:0Z</time></trkpt>
<trkpt lat="46.65180" lon="7.18433"><ele>0</ele><time>-0-0T0:0:0Z</time></trkpt>
<trkpt lat="46.65177" lon="7.18178"><ele>0</ele><time>-0-0T0:0:0Z</time></trkpt>
<trkpt lat="46.65095" lon="7.18044"><ele>0</ele><time>-0-0T0:0:0Z</time></trkpt>
<trkpt lat="46.65099" lon="7.17958"><ele>0</ele><time>-0-0T0:0:0Z</time></trkpt>
<trkpt lat="46.65152" lon="7.17844"><ele>0</ele><time>-0-0T0:0:0Z</time></trkpt>
<trkpt lat="46.65254" lon="7.17768"><ele>0</ele><time>-0-0T0:0:0Z</time></trkpt>
<trkpt lat="46.65323" lon="7.17640"><ele>0</ele><time>-0-0T0:0:0Z</time></trkpt>
<trkpt lat="46.65403" lon="7.17632"><ele>0</ele><time>-0-0T0:0:0Z</time></trkpt>
<trkpt lat="46.65441" lon="7.17646"><ele>0</ele><time>-0-0T0:0:0Z</time></trkpt>
<trkpt lat="46.65553" lon="7.17642"><ele>0</ele><time>-0-0T0:0:0Z</time></trkpt>
<trkpt lat="46.65621" lon="7.17580"><ele>0</ele><time>-0-0T0:0:0Z</time></trkpt>
<trkpt lat="46.65701" lon="7.17627"><ele>0</ele><time>-0-0T0:0:0Z</time></trkpt>
<trkpt lat="46.65731" lon="7.17704"><ele>0</ele><time>-0-0T0:0:0Z</time></trkpt>
<trkpt lat="46.65846" lon="7.17761"><ele>0</ele><time>-0-0T0:0:0Z</time></trkpt>
<trkpt lat="46.65884" lon="7.17866"><ele>0</ele><time>-0-0T0:0:0Z</time></trkpt>
<trkpt lat="46.65967" lon="7.18029"><ele>0</ele><time>-0-0T0:0:0Z</time></trkpt>
<trkpt lat="46.66102" lon="7.18043"><ele>0</ele><time>-0-0T0:0:0Z</time></trkpt>
<trkpt lat="46.66195" lon="7.18122"><ele>0</ele><time>-0-0T0:0:0Z</time></trkpt>
<trkpt lat="46.66280" lon="7.18100"><ele>0</ele><time>-0-0T0:0:0Z</time></trkpt>
<trkpt lat="46.66230" lon="7.18079"><ele>0</ele><time>-0-0T0:0:0Z</time></trkpt>
<trkpt lat="46.66212" lon="7.18046"><ele>0</ele><time>-0-0T0:0:0Z</time></trkpt>
<trkpt lat="46.66194" lon="7.17851"><ele>0</ele><time>-0-0T0:0:0Z</time></trkpt>
<trkpt lat="46.66217" lon="7.17802"><ele>0</ele><time>-0-0T0:0:0Z</time></trkpt>
<trkpt lat="46.66207" lon="7.17694"><ele>0</ele><time>-0-0T0:0:0Z</time></trkpt>
<trkpt lat="46.66181" lon="7.17610"><ele>0</ele><time>-0-0T0:0:0Z</time></trkpt>
<trkpt lat="46.66152" lon="7.17571"><ele>0</ele><time>-0-0T0:0:0Z</time></trkpt>
<trkpt lat="46.66114" lon="7.17567"><ele>0</ele><time>-0-0T0:0:0Z</time></trkpt>
<trkpt lat="46.66071" lon="7.17440"><ele>0</ele><time>-0-0T0:0:0Z</time></trkpt>
<trkpt lat="46.66123" lon="7.17439"><ele>0</ele><time>-0-0T0:0:0Z</time></trkpt>
<trkpt lat="46.66120" lon="7.17294"><ele>0</ele><time>-0-0T0:0:0Z</time></trkpt>
<trkpt lat="46.66389" lon="7.17471"><ele>0</ele><time>-0-0T0:0:0Z</time></trkpt>
<trkpt lat="46.66491" lon="7.17460"><ele>0</ele><time>-0-0T0:0:0Z</time></trkpt>
<trkpt lat="46.66591" lon="7.17500"><ele>0</ele><time>-0-0T0:0:0Z</time></trkpt>
<trkpt lat="46.66743" lon="7.17575"><ele>0</ele><time>-0-0T0:0:0Z</time></trkpt>
<trkpt lat="46.66854" lon="7.17585"><ele>0</ele><time>-0-0T0:0:0Z</time></trkpt>
<trkpt lat="46.66936" lon="7.17563"><ele>0</ele><time>-0-0T0:0:0Z</time></trkpt>
<trkpt lat="46.67009" lon="7.17453"><ele>0</ele><time>-0-0T0:0:0Z</time></trkpt>
<trkpt lat="46.67004" lon="7.17516"><ele>0</ele><time>-0-0T0:0:0Z</time></trkpt>
<trkpt lat="46.67039" lon="7.17567"><ele>0</ele><time>-0-0T0:0:0Z</time></trkpt>
<trkpt lat="46.67094" lon="7.17581"><ele>0</ele><time>-0-0T0:0:0Z</time></trkpt>
<trkpt lat="46.67217" lon="7.17787"><ele>0</ele><time>-0-0T0:0:0Z</time></trkpt>
<trkpt lat="46.67260" lon="7.17838"><ele>0</ele><time>-0-0T0:0:0Z</time></trkpt>
<trkpt lat="46.67292" lon="7.17982"><ele>0</ele><time>-0-0T0:0:0Z</time></trkpt>
<trkpt lat="46.67362" lon="7.17994"><ele>0</ele><time>-0-0T0:0:0Z</time></trkpt>
<trkpt lat="46.67493" lon="7.18087"><ele>0</ele><time>-0-0T0:0:0Z</time></trkpt>
<trkpt lat="46.67578" lon="7.18124"><ele>0</ele><time>-0-0T0:0:0Z</time></trkpt>
<trkpt lat="46.67658" lon="7.18109"><ele>0</ele><time>-0-0T0:0:0Z</time></trkpt>
<trkpt lat="46.67750" lon="7.18027"><ele>0</ele><time>-0-0T0:0:0Z</time></trkpt>
<trkpt lat="46.67718" lon="7.18125"><ele>0</ele><time>-0-0T0:0:0Z</time></trkpt>
<trkpt lat="46.67641" lon="7.18232"><ele>0</ele><time>-0-0T0:0:0Z</time></trkpt>
<trkpt lat="46.67596" lon="7.18403"><ele>0</ele><time>-0-0T0:0:0Z</time></trkpt>
<trkpt lat="46.67462" lon="7.18531"><ele>0</ele><time>-0-0T0:0:0Z</time></trkpt>
<trkpt lat="46.67378" lon="7.18745"><ele>0</ele><time>-0-0T0:0:0Z</time></trkpt>
<trkpt lat="46.67301" lon="7.18905"><ele>0</ele><time>-0-0T0:0:0Z</time></trkpt>
<trkpt lat="46.67279" lon="7.19127"><ele>0</ele><time>-0-0T0:0:0Z</time></trkpt>
<trkpt lat="46.67286" lon="7.19189"><ele>0</ele><time>-0-0T0:0:0Z</time></trkpt>
<trkpt lat="46.67279" lon="7.19236"><ele>0</ele><time>-0-0T0:0:0Z</time></trkpt>
<trkpt lat="46.67271" lon="7.19436"><ele>0</ele><time>-0-0T0:0:0Z</time></trkpt>
<trkpt lat="46.67209" lon="7.19550"><ele>0</ele><time>-0-0T0:0:0Z</time></trkpt>
<trkpt lat="46.67200" lon="7.19695"><ele>0</ele><time>-0-0T0:0:0Z</time></trkpt>
<trkpt lat="46.67232" lon="7.19767"><ele>0</ele><time>-0-0T0:0:0Z</time></trkpt>
<trkpt lat="46.67175" lon="7.20028"><ele>0</ele><time>-0-0T0:0:0Z</time></trkpt>
<trkpt lat="46.67138" lon="7.20367"><ele>0</ele><time>-0-0T0:0:0Z</time></trkpt>
<trkpt lat="46.67093" lon="7.20381"><ele>0</ele><time>-0-0T0:0:0Z</time></trkpt>
<trkpt lat="46.67044" lon="7.20436"><ele>0</ele><time>-0-0T0:0:0Z</time></trkpt>
<trkpt lat="46.66894" lon="7.20749"><ele>0</ele><time>-0-0T0:0:0Z</time></trkpt>
<trkpt lat="46.66760" lon="7.20881"><ele>0</ele><time>-0-0T0:0:0Z</time></trkpt>
<trkpt lat="46.66723" lon="7.20932"><ele>0</ele><time>-0-0T0:0:0Z</time></trkpt>
<trkpt lat="46.66673" lon="7.20975"><ele>0</ele><time>-0-0T0:0:0Z</time></trkpt>
<trkpt lat="46.66647" lon="7.21034"><ele>0</ele><time>-0-0T0:0:0Z</time></trkpt>
<trkpt lat="46.66670" lon="7.21099"><ele>0</ele><time>-0-0T0:0:0Z</time></trkpt>
<trkpt lat="46.66770" lon="7.21215"><ele>0</ele><time>-0-0T0:0:0Z</time></trkpt>
<trkpt lat="46.66836" lon="7.21407"><ele>0</ele><time>-0-0T0:0:0Z</time></trkpt>
<trkpt lat="46.66819" lon="7.21577"><ele>0</ele><time>-0-0T0:0:0Z</time></trkpt>
<trkpt lat="46.66844" lon="7.21701"><ele>0</ele><time>-0-0T0:0:0Z</time></trkpt>
<trkpt lat="46.66839" lon="7.21770"><ele>0</ele><time>-0-0T0:0:0Z</time></trkpt>
<trkpt lat="46.66826" lon="7.21807"><ele>0</ele><time>-0-0T0:0:0Z</time></trkpt>
<trkpt lat="46.66807" lon="7.21938"><ele>0</ele><time>-0-0T0:0:0Z</time></trkpt>
<trkpt lat="46.66739" lon="7.22079"><ele>0</ele><time>-0-0T0:0:0Z</time></trkpt>
<trkpt lat="46.66655" lon="7.22185"><ele>0</ele><time>-0-0T0:0:0Z</time></trkpt>
<trkpt lat="46.66636" lon="7.22273"><ele>0</ele><time>-0-0T0:0:0Z</time></trkpt>
<trkpt lat="46.66638" lon="7.22371"><ele>0</ele><time>-0-0T0:0:0Z</time></trkpt>
<trkpt lat="46.66713" lon="7.22573"><ele>0</ele><time>-0-0T0:0:0Z</time></trkpt>
<trkpt lat="46.66726" lon="7.22671"><ele>0</ele><time>-0-0T0:0:0Z</time></trkpt>
<trkpt lat="46.66602" lon="7.23090"><ele>0</ele><time>-0-0T0:0:0Z</time></trkpt>
<trkpt lat="46.66571" lon="7.23108"><ele>0</ele><time>-0-0T0:0:0Z</time></trkpt>
<trkpt lat="46.66490" lon="7.23217"><ele>0</ele><time>-0-0T0:0:0Z</time></trkpt>
<trkpt lat="46.66487" lon="7.23250"><ele>0</ele><time>-0-0T0:0:0Z</time></trkpt>
<trkpt lat="46.66457" lon="7.23286"><ele>0</ele><time>-0-0T0:0:0Z</time></trkpt>
<trkpt lat="46.66370" lon="7.23537"><ele>0</ele><time>-0-0T0:0:0Z</time></trkpt>
<trkpt lat="46.66357" lon="7.23599"><ele>0</ele><time>-0-0T0:0:0Z</time></trkpt>
<trkpt lat="46.66308" lon="7.23607"><ele>0</ele><time>-0-0T0:0:0Z</time></trkpt>
<trkpt lat="46.66231" lon="7.23712"><ele>0</ele><time>-0-0T0:0:0Z</time></trkpt>
<trkpt lat="46.66221" lon="7.23781"><ele>0</ele><time>-0-0T0:0:0Z</time></trkpt>
<trkpt lat="46.66118" lon="7.23760"><ele>0</ele><time>-0-0T0:0:0Z</time></trkpt>
<trkpt lat="46.66066" lon="7.23786"><ele>0</ele><time>-0-0T0:0:0Z</time></trkpt>
<trkpt lat="46.66021" lon="7.23710"><ele>0</ele><time>-0-0T0:0:0Z</time></trkpt>
<trkpt lat="46.66041" lon="7.23626"><ele>0</ele><time>-0-0T0:0:0Z</time></trkpt>
<trkpt lat="46.65980" lon="7.23557"><ele>0</ele><time>-0-0T0:0:0Z</time></trkpt>
<trkpt lat="46.65901" lon="7.23492"><ele>0</ele><time>-0-0T0:0:0Z</time></trkpt>
<trkpt lat="46.65853" lon="7.23482"><ele>0</ele><time>-0-0T0:0:0Z</time></trkpt>
<trkpt lat="46.65950" lon="7.23431"><ele>0</ele><time>-0-0T0:0:0Z</time></trkpt>
<trkpt lat="46.66035" lon="7.23416"><ele>0</ele><time>-0-0T0:0:0Z</time></trkpt>
<trkpt lat="46.66092" lon="7.23346"><ele>0</ele><time>-0-0T0:0:0Z</time></trkpt>
<trkpt lat="46.66078" lon="7.23260"><ele>0</ele><time>-0-0T0:0:0Z</time></trkpt>
<trkpt lat="46.66092" lon="7.23238"><ele>0</ele><time>-0-0T0:0:0Z</time></trkpt>
<trkpt lat="46.66115" lon="7.23158"><ele>0</ele><time>-0-0T0:0:0Z</time></trkpt>
<trkpt lat="46.66137" lon="7.23067"><ele>0</ele><time>-0-0T0:0:0Z</time></trkpt>
<trkpt lat="46.66147" lon="7.23027"><ele>0</ele><time>-0-0T0:0:0Z</time></trkpt>
<trkpt lat="46.66101" lon="7.22828"><ele>0</ele><time>-0-0T0:0:0Z</time></trkpt>
<trkpt lat="46.66104" lon="7.22777"><ele>0</ele><time>-0-0T0:0:0Z</time></trkpt>
<trkpt lat="46.66036" lon="7.22687"><ele>0</ele><time>-0-0T0:0:0Z</time></trkpt>
<trkpt lat="46.65894" lon="7.22730"><ele>0</ele><time>-0-0T0:0:0Z</time></trkpt>
<trkpt lat="46.65914" lon="7.22793"><ele>0</ele><time>-0-0T0:0:0Z</time></trkpt>
<trkpt lat="46.65914" lon="7.22861"><ele>0</ele><time>-0-0T0:0:0Z</time></trkpt>
<trkpt lat="46.65834" lon="7.22992"><ele>0</ele><time>-0-0T0:0:0Z</time></trkpt>
<trkpt lat="46.65844" lon="7.23065"><ele>0</ele><time>-0-0T0:0:0Z</time></trkpt>
<trkpt lat="46.65822" lon="7.23090"><ele>0</ele><time>-0-0T0:0:0Z</time></trkpt>
<trkpt lat="46.65763" lon="7.23080"><ele>0</ele><time>-0-0T0:0:0Z</time></trkpt>
<trkpt lat="46.65715" lon="7.23105"><ele>0</ele><time>-0-0T0:0:0Z</time></trkpt>
<trkpt lat="46.65600" lon="7.23077"><ele>0</ele><time>-0-0T0:0:0Z</time></trkpt>
<trkpt lat="46.65562" lon="7.23095"><ele>0</ele><time>-0-0T0:0:0Z</time></trkpt>
<trkpt lat="46.65505" lon="7.23016"><ele>0</ele><time>-0-0T0:0:0Z</time></trkpt>
<trkpt lat="46.65477" lon="7.22907"><ele>0</ele><time>-0-0T0:0:0Z</time></trkpt>
<trkpt lat="46.65527" lon="7.22838"><ele>0</ele><time>-0-0T0:0:0Z</time></trkpt>
<trkpt lat="46.65529" lon="7.22765"><ele>0</ele><time>-0-0T0:0:0Z</time></trkpt>
<trkpt lat="46.65477" lon="7.22783"><ele>0</ele><time>-0-0T0:0:0Z</time></trkpt>
<trkpt lat="46.65390" lon="7.22755"><ele>0</ele><time>-0-0T0:0:0Z</time></trkpt>
<trkpt lat="46.65412" lon="7.22722"><ele>0</ele><time>-0-0T0:0:0Z</time></trkpt>
<trkpt lat="46.65397" lon="7.22697"><ele>0</ele><time>-0-0T0:0:0Z</time></trkpt>
<trkpt lat="46.65430" lon="7.22606"><ele>0</ele><time>-0-0T0:0:0Z</time></trkpt>
<trkpt lat="46.65332" lon="7.22573"><ele>0</ele><time>-0-0T0:0:0Z</time></trkpt>
<trkpt lat="46.65260" lon="7.22584"><ele>0</ele><time>-0-0T0:0:0Z</time></trkpt>
<trkpt lat="46.65194" lon="7.22686"><ele>0</ele><time>-0-0T0:0:0Z</time></trkpt>
<trkpt lat="46.65184" lon="7.22523"><ele>0</ele><time>-0-0T0:0:0Z</time></trkpt>
<trkpt lat="46.65206" lon="7.22429"><ele>0</ele><time>-0-0T0:0:0Z</time></trkpt>
<trkpt lat="46.65289" lon="7.22371"><ele>0</ele><time>-0-0T0:0:0Z</time></trkpt>
<trkpt lat="46.65272" lon="7.22240"><ele>0</ele><time>-0-0T0:0:0Z</time></trkpt>
<trkpt lat="46.65401" lon="7.22120"><ele>0</ele><time>-0-0T0:0:0Z</time></trkpt>
<trkpt lat="46.65439" lon="7.22112"><ele>0</ele><time>-0-0T0:0:0Z</time></trkpt>
<trkpt lat="46.65488" lon="7.21993"><ele>0</ele><time>-0-0T0:0:0Z</time></trkpt>
<trkpt lat="46.65416" lon="7.21930"><ele>0</ele><time>-0-0T0:0:0Z</time></trkpt>
<trkpt lat="46.65348" lon="7.21800"><ele>0</ele><time>-0-0T0:0:0Z</time></trkpt>
<trkpt lat="46.65220" lon="7.21732"><ele>0</ele><time>-0-0T0:0:0Z</time></trkpt>
<trkpt lat="46.65192" lon="7.21657"><ele>0</ele><time>-0-0T0:0:0Z</time></trkpt>
<trkpt lat="46.65198" lon="7.21580"><ele>0</ele><time>-0-0T0:0:0Z</time></trkpt>
<trkpt lat="46.65217" lon="7.21537"><ele>0</ele><time>-0-0T0:0:0Z</time></trkpt>
<trkpt lat="46.65220" lon="7.21463"><ele>0</ele><time>-0-0T0:0:0Z</time></trkpt>
<trkpt lat="46.65329" lon="7.21195"><ele>0</ele><time>-0-0T0:0:0Z</time></trkpt>
<trkpt lat="46.65326" lon="7.21093"><ele>0</ele><time>-0-0T0:0:0Z</time></trkpt>
<trkpt lat="46.65309" lon="7.20973"><ele>0</ele><time>-0-0T0:0:0Z</time></trkpt>
<trkpt lat="46.65344" lon="7.20781"><ele>0</ele><time>-0-0T0:0:0Z</time></trkpt>
<trkpt lat="46.65366" lon="7.20699"><ele>0</ele><time>-0-0T0:0:0Z</time></trkpt>
<trkpt lat="46.65443" lon="7.20545"><ele>0</ele><time>-0-0T0:0:0Z</time></trkpt>
<trkpt lat="46.65440" lon="7.20274"><ele>0</ele><time>-0-0T0:0:0Z</time></trkpt>
<trkpt lat="46.65504" lon="7.20196"><ele>0</ele><time>-0-0T0:0:0Z</time></trkpt>
<trkpt lat="46.65497" lon="7.19986"><ele>0</ele><time>-0-0T0:0:0Z</time></trkpt>
<trkpt lat="46.65449" lon="7.19906"><ele>0</ele><time>-0-0T0:0:0Z</time></trkpt>
<trkpt lat="46.65399" lon="7.19888"><ele>0</ele><time>-0-0T0:0:0Z</time></trkpt>
<trkpt lat="46.65379" lon="7.19780"><ele>0</ele><time>-0-0T0:0:0Z</time></trkpt>
<trkpt lat="46.65383" lon="7.19621"><ele>0</ele><time>-0-0T0:0:0Z</time></trkpt>
<trkpt lat="46.65376" lon="7.19498"><ele>0</ele><time>-0-0T0:0:0Z</time></trkpt>
<trkpt lat="46.65278" lon="7.19378"><ele>0</ele><time>-0-0T0:0:0Z</time></trkpt>
<trkpt lat="46.65205" lon="7.19146"><ele>0</ele><time>-0-0T0:0:0Z</time></trkpt>
<trkpt lat="46.65110" lon="7.19077"><ele>0</ele><time>-0-0T0:0:0Z</time></trkpt>
<trkpt lat="46.65085" lon="7.19075"><ele>0</ele><time>-0-0T0:0:0Z</time></trkpt>
<trkpt lat="46.65067" lon="7.18991"><ele>0</ele><time>-0-0T0:0:0Z</time></trkpt>
<trkpt lat="46.65040" lon="7.18973"><ele>0</ele><time>-0-0T0:0:0Z</time></trkpt>
<trkpt lat="46.64890" lon="7.19104"><ele>0</ele><time>-0-0T0:0:0Z</time></trkpt>
<trkpt lat="46.64858" lon="7.19249"><ele>0</ele><time>-0-0T0:0:0Z</time></trkpt>
<trkpt lat="46.64891" lon="7.19288"><ele>0</ele><time>-0-0T0:0:0Z</time></trkpt>
<trkpt lat="46.64873" lon="7.19402"><ele>0</ele><time>-0-0T0:0:0Z</time></trkpt>
<trkpt lat="46.64798" lon="7.19521"><ele>0</ele><time>-0-0T0:0:0Z</time></trkpt>
<trkpt lat="46.64721" lon="7.19438"><ele>0</ele><time>-0-0T0:0:0Z</time></trkpt>
<trkpt lat="46.64716" lon="7.19562"><ele>0</ele><time>-0-0T0:0:0Z</time></trkpt>
<trkpt lat="46.64669" lon="7.19583"><ele>0</ele><time>-0-0T0:0:0Z</time></trkpt>
<trkpt lat="46.64609" lon="7.19548"><ele>0</ele><time>-0-0T0:0:0Z</time></trkpt>
<trkpt lat="46.64531" lon="7.19257"><ele>0</ele><time>-0-0T0:0:0Z</time></trkpt>
<trkpt lat="46.64391" lon="7.19193"><ele>0</ele><time>-0-0T0:0:0Z</time></trkpt>
<trkpt lat="46.64318" lon="7.19154"><ele>0</ele><time>-0-0T0:0:0Z</time></trkpt>
<trkpt lat="46.64251" lon="7.19060"><ele>0</ele><time>-0-0T0:0:0Z</time></trkpt>
<trkpt lat="46.64218" lon="7.18981"><ele>0</ele><time>-0-0T0:0:0Z</time></trkpt>
<trkpt lat="46.64158" lon="7.18904"><ele>0</ele><time>-0-0T0:0:0Z</time></trkpt>
<trkpt lat="46.64085" lon="7.18755"><ele>0</ele><time>-0-0T0:0:0Z</time></trkpt>
<trkpt lat="46.64054" lon="7.18661"><ele>0</ele><time>-0-0T0:0:0Z</time></trkpt>
<trkpt lat="46.63957" lon="7.18499"><ele>0</ele><time>-0-0T0:0:0Z</time></trkpt>
<trkpt lat="46.63930" lon="7.18386"><ele>0</ele><time>-0-0T0:0:0Z</time></trkpt>
<trkpt lat="46.63749" lon="7.18148"><ele>0</ele><time>-0-0T0:0:0Z</time></trkpt>
<trkpt lat="46.63711" lon="7.18138"><ele>0</ele><time>-0-0T0:0:0Z</time></trkpt>
<trkpt lat="46.63498" lon="7.17780"><ele>0</ele><time>-0-0T0:0:0Z</time></trkpt>
<trkpt lat="46.63328" lon="7.17534"><ele>0</ele><time>-0-0T0:0:0Z</time></trkpt>
<trkpt lat="46.63323" lon="7.17446"><ele>0</ele><time>-0-0T0:0:0Z</time></trkpt>
<trkpt lat="46.63275" lon="7.17410"><ele>0</ele><time>-0-0T0:0:0Z</time></trkpt>
<trkpt lat="46.63178" lon="7.17212"><ele>0</ele><time>-0-0T0:0:0Z</time></trkpt>
<trkpt lat="46.63095" lon="7.17111"><ele>0</ele><time>-0-0T0:0:0Z</time></trkpt>
<trkpt lat="46.63002" lon="7.17038"><ele>0</ele><time>-0-0T0:0:0Z</time></trkpt>
<trkpt lat="46.62875" lon="7.16877"><ele>0</ele><time>-0-0T0:0:0Z</time></trkpt>
<trkpt lat="46.62852" lon="7.16796"><ele>0</ele><time>-0-0T0:0:0Z</time></trkpt>
<trkpt lat="46.62864" lon="7.16706"><ele>0</ele><time>-0-0T0:0:0Z</time></trkpt>
<trkpt lat="46.62800" lon="7.16710"><ele>0</ele><time>-0-0T0:0:0Z</time></trkpt>
<trkpt lat="46.62644" lon="7.16780"><ele>0</ele><time>-0-0T0:0:0Z</time></trkpt>
<trkpt lat="46.62422" lon="7.16795"><ele>0</ele><time>-0-0T0:0:0Z</time></trkpt>
<trkpt lat="46.62347" lon="7.16774"><ele>0</ele><time>-0-0T0:0:0Z</time></trkpt>
<trkpt lat="46.62262" lon="7.16690"><ele>0</ele><time>-0-0T0:0:0Z</time></trkpt>
<trkpt lat="46.62180" lon="7.16673"><ele>0</ele><time>-0-0T0:0:0Z</time></trkpt>
<trkpt lat="46.62118" lon="7.16687"><ele>0</ele><time>-0-0T0:0:0Z</time></trkpt>
<trkpt lat="46.62082" lon="7.16571"><ele>0</ele><time>-0-0T0:0:0Z</time></trkpt>
<trkpt lat="46.61969" lon="7.16402"><ele>0</ele><time>-0-0T0:0:0Z</time></trkpt>
<trkpt lat="46.61922" lon="7.16417"><ele>0</ele><time>-0-0T0:0:0Z</time></trkpt>
</trkseg></trk></gpx>